Showing default

IMECE, 56178

Orbit data source: Space-Track

IMECE, 56178 is a payload satellite owned by TUBITAK-UZAY (TR) in SSO that was launched on Sat, 15 Apr 2023 UTC via an FALCON 9 launch vehicle from the Air Force Western Test Range (AFWTR). Payload-class satellites include a variety of spacecraft equipped with specific instruments for various scientific and technological missions. These include communications satellites like Starlink; space stations such as the ISS; scientific satellites like the Hubble; Earth observation satellites from companies like Planet Labs, Umbra, and HawkEye 360; GPS; miniature CubeSats for education and research; and military/defense satellites.

Loading next visibility...
Identifier
56178, 2023-054A
Orbit
SSO
Country
Flag of UnknownUnknown / TURK
Related business
Manufacturer
TUBITAK-UZAY
Mission
Operational Civil Imaging
Bus & Motor
IMECE, AOCS
Mass
800 kg wet, ~780 kg dry
Launch date (UTC)
2023-04-15 (2 years ago)
Launch vehicle
FALCON 9
Launch site
Air Force Western Test Range (AFWTR)
Object type
Payload
Rocket body
Debris
Shape & HBR
Hex Cyl + 2 Pan, 4.0 m
Radar Cross Section
4.470 m², Large (>1 m²)

Expand to show TLE details & history
Last TLE update: 17 hours ago

TLE from 17 hours ago
0 IMECE
1 56178U 23054A   25241.33760539  .00000535  00000-0  10677-3 0  9998
2 56178  98.1374 144.0845 0010111  18.7904 341.3671 14.65828122127655
Epoch: 2025-08-29T08:06Z
TLE epoch observation values (Epoch: 2025-08-29T08:06:09.105Z)
Latitude
-0.00002°
Longitude
44.75887°
Altitude
670.655 km
Speed
7.525 km/s
True Right ascension
09h 36m 20s
True Declination
0° 00' 00"
Sunlit
Object was in daylight at epoch
Visualization orbit readout
Latitude
Unknown
Longitude
Unknown
Altitude
Unknown
Speed
Unknown
Apparent Right ascension
Unknown
Apparent Declination
Unknown
Sunlit
N/A
Visualization observer readout
Local Sidereal Time
16:59:55
Azimuth
Unknown
Elevation
Unknown
Doppler factor
Unknown
Orbital elements
Apogee altitude
678.616 km
Perigee altitude
664.361 km
Semi-major axis
7,049.625 km
Eccentricity
0.00101
Inclination
98.1374°
RAAN
144.0845°
Arg. of periapsis
18.7904°
True anomaly
341.33004°
Mean anomaly
341.3671°
Eccentric anomaly
341.34857°
Mean motion
3.66686 °/min
Orbital period
98.18 mins
BSTAR
0.00010677
Loading maneuver chart data...
Computing Atmospheric mass density...

Documentation

Showing up to 5 results
|